Temp
33 33 33 33 32 33 31 31 32 33 33 34 35 35 33 35 35 37 40 40 39 39 42 42 40 41 42 44 45 46 46 51 57 54 54 54 47 46 48 50 53 53 54
31 31 31 31 30 29 29 30 30 31 31 32 34 33 33 32 32 33 34 35 35 36 38 40 38 39 38 38 38 40 41 43 49 50 45 46 43 44 45 46 46 50 51
30 30 29 29 29 28 28 30 31 31 30 31 31 31 30 30 31 31 32 32 32 32 32 33 33 35 33 34 34 36 38 40 40 41 39 39 41 39 41 43 42 42 48
30 31 28 28 30 30 29 29 30 30 30 28 29 30 29 29 29 29 29 29 29 30 31 32 32 32 32 32 32 32 33 35 36 35 34 34 34 35 37 35 35 40 41
30 30 30 31 30 32 31 31 31 32 30 29 28 28 29 28 29 29 30 28 27 28 29 31 32 34 34 33 32 31 32 32 32 32 31 32 30 31 30 32 34 37 45
33 32 31 31 31 30 32 31 31 32 32 31 30 29 26 28 28 29 29 28 28 28 29 31 33 33 33 32 32 32 32 32 32 31 30 30 30 31 33 33 32 33 34
32 32 32 31 30 30 31 31 31 30 31 31 31 30 29 28 30 29 28 30 29 29 28 30 31 31 31 33 32 31 31 31 30 31 28 28 28 30 31 33 32 32 32
31 31 32 31 30 30 30 29 29 30 29 29 29 30 30 29 28 29 29 28 26 27 28 29 29 29 29 31 32 29 28 29 30 32 30 29 30 30 30 31 32 33 35
29 29 30 30 29 29 27 27 29 29 28 27 28 27 28 28 27 26 29 28 26 23 26 28 27 27 26 28 29 27 25 23 27 28 29 28 28 28 28 30 27 29 27
28 28 30 29 28 25 26 26 28 28 27 27 25 25 26 26 27 26 26 26 21 22 22 23 24 25 24 24 24 24 21 19 20 22 23 25 25 25 26 27 26 26 26
31 30 30 29 26 27 26 27 25 25 25 23 23 23 23 24 25 26 24 21 19 19 19 19 21 22 23 21 20 19 16 17 18 19 21 22 23 23 24 25 26 25 24
31 30 29 29 29 27 25 26 26 25 23 23 23 23 23 23 25 25 23 21 20 18 17 18 19 20 19 20 18 17 16 16 17 17 17 17 18 19 20 22 23 26 28
31 30 29 30 30 29 27 25 27 26 25 25 24 23 24 25 24 23 23 21 19 17 18 18 18 17 17 16 17 15 15 15 14 14 13 14 16 18 20 22 24 26 28
30 30 30 29 29 29 30 28 26 25 25 24 23 23 24 25 24 25 24 22 20 19 17 17 16 17 15 15 16 16 15 14 13 12 12 14 17 18 19 20 20 22 24
30 30 29 29 28 28 28 28 27 27 26 24 23 23 23 22 24 24 23 22 20 18 18 18 17 16 16 16 16 15 15 15 13 14 13 13 14 16 17 19 20 21 21
29 29 28 28 28 27 27 25 26 26 26 26 26 25 24 25 25 25 23 22 21 18 17 15 14 14 14 15 14 14 15 13 13 13 13 13 12 13 14 17 19 19 18
28 28 28 27 26 24 24 23 21 22 23 24 24 24 25 24 24 24 22 21 20 20 17 16 15 15 15 16 16 15 13 13 13 13 12 11 11 11 12 14 16 16 16
26 24 25 23 23 22 22 21 21 20 19 19 21 22 22 23 23 22 21 21 20 20 19 17 16 17 17 16 16 15 14 14 13 12 11 10 9 9 10 12 13 12 14
24 23 22 22 21 21 21 21 21 20 20 20 21 21 19 20 20 20 18 18 17 18 18 18 18 18 18 17 16 15 12 12 10 10 11 9 8 9 8 10 11 10 10
25 22 22 22 22 22 21 21 21 20 20 20 20 20 20 20 19 19 19 17 17 18 19 19 19 19 18 17 16 15 14 14 12 12 10 10 9 8 8 8 10 10 12
25 24 22 23 23 22 22 22 21 21 20 20 20 19 9 16 17 18 18 18 17 17 16 17 17 18 18 17 17 16 14 13 12 11 11 10 8 7 9 10 10 10 12
24 23 23 23 22 21 22 22 21 20 20 19 20 19 11 17 17 16 16 15 15 16 16 15 15 16 17 17 17 15 13 12 12 12 10 8 8 8 9 8 8 9 10
23 23 22 23 22 18 20 20 20 19 19 18 16 15 15 14 13 13 13 13 13 13 14 14 13 12 14 15 16 15 13 13 13 12 8 8 7 8 7 7 7 7 8
21 21 21 20 19 20 19 18 17 14 14 14 13 12 12 11 11 11 10 10 9 10 10 9 10 10 10 11 13 13 13 13 13 12 8 6 7 7 6 6 7 6 7
20 19 19 19 19 18 16 15 14 13 12 11 9 9 9 8 8 8 7 6 4 5 5 5 6 6 6 5 7 8 9 9 8 10 9 7 7 5 5 5 5 6 7
19 20 19 18 17 15 14 12 10 9 7 6 5 5 4 4 5 3 3 2 1 1 2 2 3 2 2 5 6 5 4 8 9 5 7 8 6 6 6 4 4 5 7
MSLP
1024.10 1023.71 1023.45 1022.65 1022.18 1021.43 1020.55 1019.82 1018.81 1017.40 1016.38 1015.29 1014.43 1012.83 1011.15 1011.05 1010.38 1009.80 1008.52 1007.85 1006.89 1007.19 1007.09 1006.40 1007.19 1007.74 1007.45 1007.61 1007.36 1007.71 1009.08 1007.57 1007.07 1008.19 1008.45 1009.11 1010.17 1010.71 1010.85 1010.87 1010.71 1010.80 1010.82
1024.68 1024.24 1024.24 1023.46 1022.86 1022.21 1021.59 1021.01 1019.95 1018.85 1017.70 1016.64 1015.59 1013.60 1013.15 1013.22 1012.33 1011.86 1011.15 1010.65 1009.27 1009.14 1009.65 1008.69 1009.12 1009.12 1009.13 1008.96 1008.47 1008.71 1009.41 1009.11 1008.23 1008.54 1010.03 1010.47 1011.54 1012.06 1011.96 1011.71 1011.50 1011.71 1011.82
1024.95 1024.99 1024.95 1024.20 1023.51 1023.30 1022.71 1021.76 1021.04 1019.79 1018.94 1017.57 1016.08 1015.07 1015.04 1014.77 1015.09 1013.35 1013.45 1012.70 1011.95 1011.74 1011.78 1011.50 1010.94 1010.32 1010.21 1010.55 1010.85 1012.22 1011.15 1010.27 1010.02 1010.22 1011.71 1012.36 1012.34 1013.29 1012.71 1012.92 1012.18 1012.23 1012.65
1025.52 1025.51 1025.17 1024.99 1024.38 1023.93 1023.44 1022.52 1021.91 1020.91 1019.83 1018.63 1018.24 1017.54 1017.23 1017.57 1015.88 1016.23 1015.99 1015.03 1014.30 1013.59 1013.78 1014.51 1012.76 1012.54 1012.12 1012.21 1012.86 1012.80 1012.32 1012.13 1012.08 1012.24 1012.77 1013.66 1013.61 1014.06 1014.04 1013.50 1012.97 1012.54 1013.79
1026.22 1025.94 1025.62 1025.49 1025.24 1024.67 1024.05 1023.39 1023.01 1022.18 1021.37 1020.86 1020.40 1019.76 1019.52 1019.20 1019.32 1018.50 1017.45 1017.00 1015.07 1017.07 1015.13 1014.79 1015.49 1014.52 1014.61 1013.66 1014.38 1014.47 1013.86 1014.19 1013.63 1014.11 1014.62 1015.13 1015.27 1014.84 1015.34 1015.33 1015.36 1015.13 1014.28
1026.41 1026.33 1026.23 1026.08 1025.83 1025.50 1024.99 1024.48 1023.93 1023.46 1022.95 1022.43 1021.86 1021.58 1021.36 1021.63 1021.52 1020.58 1019.35 1017.89 1017.34 1016.91 1016.12 1018.36 1017.43 1016.72 1016.55 1016.68 1016.12 1016.91 1016.44 1016.03 1016.14 1015.94 1017.16 1017.45 1017.54 1017.47 1017.36 1016.71 1016.55 1015.54 1013.87
1026.84 1026.87 1026.65 1026.61 1026.42 1026.21 1025.94 1025.43 1024.84 1024.68 1024.17 1023.64 1023.30 1023.15 1023.02 1022.70 1021.61 1020.32 1020.17 1019.73 1019.38 1019.19 1018.93 1019.76 1018.54 1019.01 1019.27 1018.28 1018.36 1018.87 1018.47 1018.55 1018.40 1017.96 1018.27 1018.71 1018.80 1019.11 1018.51 1017.76 1017.56 1017.02 1016.35
1027.63 1027.44 1027.22 1027.17 1026.98 1026.89 1026.71 1026.53 1026.19 1025.95 1025.67 1025.27 1024.91 1024.30 1023.78 1023.46 1022.94 1022.57 1021.93 1022.37 1022.12 1021.29 1020.80 1020.23 1019.74 1020.00 1019.82 1020.04 1019.97 1019.98 1020.04 1019.91 1019.76 1019.41 1019.46 1020.02 1020.01 1019.84 1019.37 1018.75 1018.17 1017.37 1016.38
1028.49 1028.27 1028.07 1027.91 1027.72 1027.65 1027.45 1027.42 1027.29 1027.25 1027.15 1027.02 1026.80 1026.49 1025.69 1025.28 1024.90 1024.28 1023.36 1023.16 1023.05 1023.08 1022.94 1022.54 1022.57 1022.84 1022.94 1022.52 1021.91 1021.18 1021.01 1021.73 1021.53 1021.47 1020.84 1021.17 1021.16 1020.89 1020.45 1018.89 1018.32 1017.51 1016.55
1029.13 1029.06 1028.85 1028.75 1028.57 1028.67 1028.49 1028.35 1028.14 1027.96 1027.84 1028.09 1027.83 1027.55 1026.94 1026.27 1025.84 1025.12 1024.63 1024.48 1024.25 1024.00 1024.62 1024.53 1024.68 1024.23 1024.14 1023.76 1022.71 1022.91 1022.92 1023.40 1023.06 1022.57 1022.03 1021.68 1021.65 1021.17 1020.92 1020.22 1019.65 1018.76 1018.39
1029.38 1029.44 1029.23 1029.26 1029.32 1029.29 1029.28 1029.19 1029.11 1028.94 1028.60 1028.33 1027.94 1027.83 1027.47 1026.97 1026.54 1026.18 1025.82 1025.66 1025.73 1025.74 1026.03 1026.01 1025.88 1025.54 1025.10 1025.34 1025.30 1025.23 1025.48 1025.29 1024.48 1023.71 1023.14 1022.75 1022.18 1021.72 1021.47 1021.25 1020.77 1020.00 1019.45
1029.42 1029.58 1029.60 1029.49 1029.61 1029.79 1029.79 1029.64 1029.53 1029.37 1029.11 1028.91 1028.70 1028.30 1028.24 1028.04 1027.47 1027.09 1027.03 1027.27 1027.15 1026.84 1026.99 1027.19 1027.28 1027.01 1026.78 1026.48 1026.42 1026.35 1026.23 1025.72 1025.06 1024.54 1024.07 1023.58 1023.14 1022.87 1022.38 1021.75 1021.09 1020.40 1019.87
1029.41 1029.61 1029.72 1029.75 1029.83 1029.97 1030.02 1030.01 1029.64 1029.51 1029.30 1029.20 1028.93 1028.76 1028.69 1028.81 1028.81 1028.98 1028.75 1028.51 1028.63 1028.37 1028.48 1028.49 1028.46 1028.21 1027.67 1027.33 1027.12 1027.07 1026.51 1026.16 1025.74 1025.00 1024.79 1024.53 1024.23 1023.83 1023.22 1021.99 1021.32 1020.55 1019.38
1029.42 1029.68 1029.89 1030.00 1030.13 1030.20 1030.14 1030.15 1030.20 1030.05 1029.82 1029.71 1029.51 1029.30 1029.13 1028.89 1028.82 1028.75 1028.68 1028.73 1028.87 1029.04 1029.18 1029.09 1028.71 1028.08 1028.03 1027.96 1027.78 1027.66 1027.59 1027.16 1026.48 1026.23 1026.12 1025.57 1024.62 1023.82 1023.34 1022.69 1021.64 1020.66 1019.49
1029.53 1029.75 1029.96 1030.19 1030.35 1030.51 1030.61 1030.53 1030.63 1030.64 1030.56 1030.37 1030.39 1030.25 1029.72 1029.36 1029.34 1029.39 1029.28 1028.97 1029.16 1029.63 1029.33 1028.82 1028.69 1028.49 1028.29 1028.14 1028.05 1028.11 1027.96 1027.67 1027.32 1026.93 1026.43 1025.78 1025.08 1024.48 1023.72 1022.84 1021.97 1021.12 1020.08
1029.60 1029.91 1030.22 1030.42 1030.59 1030.75 1030.87 1031.07 1031.29 1031.27 1031.17 1031.07 1030.86 1030.65 1030.59 1030.33 1030.14 1030.06 1030.06 1029.93 1029.87 1030.26 1029.78 1029.55 1029.39 1029.17 1028.79 1028.71 1028.55 1028.48 1028.38 1028.08 1027.84 1027.45 1027.06 1026.72 1026.14 1025.31 1024.24 1023.12 1022.54 1021.54 1020.76
1029.79 1030.20 1030.59 1030.84 1031.06 1031.28 1031.40 1031.54 1031.67 1031.89 1031.75 1031.64 1031.44 1031.21 1031.03 1030.91 1030.68 1030.69 1030.56 1030.45 1030.35 1030.06 1029.93 1029.87 1029.74 1029.61 1029.33 1029.21 1029.13 1029.04 1028.81 1028.67 1028.48 1028.15 1027.58 1027.10 1026.68 1025.92 1024.90 1023.75 1022.93 1021.94 1020.93
1030.25 1030.68 1030.99 1031.39 1031.65 1031.90 1031.99 1032.13 1032.15 1032.10 1032.09 1032.13 1032.16 1031.85 1031.66 1031.38 1031.22 1031.09 1030.87 1030.43 1030.14 1030.01 1029.99 1029.90 1029.83 1029.76 1029.63 1029.47 1029.36 1029.25 1029.07 1028.74 1028.36 1028.10 1027.65 1027.32 1026.87 1026.18 1025.01 1024.06 1023.27 1022.40 1021.27
1030.58 1031.01 1031.37 1031.72 1031.99 1032.19 1032.32 1032.35 1032.35 1032.35 1032.29 1032.26 1032.13 1031.95 1032.16 1031.84 1031.51 1031.34 1031.29 1030.87 1030.58 1030.28 1030.11 1029.89 1029.81 1029.69 1029.50 1029.40 1029.26 1029.09 1029.00 1028.65 1028.57 1028.24 1027.71 1027.47 1027.11 1026.46 1025.63 1024.85 1023.93 1023.03 1022.01
1030.76 1031.15 1031.52 1031.79 1032.04 1032.13 1032.25 1032.23 1032.29 1032.31 1032.22 1032.13 1031.98 1031.79 1031.76 1031.61 1031.11 1031.11 1030.96 1030.93 1030.67 1030.37 1030.02 1029.68 1029.49 1029.30 1029.15 1029.02 1028.87 1028.63 1028.33 1028.02 1027.88 1027.69 1027.54 1027.28 1026.99 1026.62 1025.71 1024.87 1023.96 1022.95 1021.82
1030.93 1031.22 1031.48 1031.75 1031.87 1032.00 1032.11 1032.13 1032.19 1032.18 1032.05 1031.93 1031.77 1031.92 1032.01 1031.86 1031.45 1031.21 1030.96 1030.76 1030.58 1030.24 1029.88 1029.52 1029.15 1028.80 1028.58 1028.36 1028.26 1028.07 1028.05 1027.95 1027.86 1027.82 1027.56 1027.32 1027.09 1026.49 1025.83 1025.02 1024.07 1023.07 1021.91
1030.94 1031.19 1031.46 1031.61 1031.82 1031.98 1032.02 1032.11 1032.07 1032.02 1031.92 1031.85 1031.74 1031.82 1032.10 1031.86 1031.64 1031.43 1031.23 1031.13 1030.92 1030.53 1030.21 1029.96 1029.43 1028.85 1028.23 1027.84 1027.73 1027.73 1027.72 1027.63 1027.50 1027.40 1027.34 1027.23 1026.85 1026.23 1025.51 1024.79 1023.94 1022.95 1021.94
1030.95 1031.15 1031.36 1031.55 1031.72 1031.97 1032.02 1032.05 1032.02 1032.01 1031.91 1031.92 1032.08 1032.12 1032.11 1032.01 1031.93 1031.72 1031.55 1031.41 1031.15 1030.89 1030.54 1030.20 1029.74 1029.27 1028.69 1028.14 1027.73 1027.49 1027.31 1027.08 1026.99 1027.15 1027.19 1026.97 1026.59 1026.02 1025.50 1024.56 1023.75 1022.78 1021.82
1031.01 1031.23 1031.40 1031.59 1031.80 1031.87 1031.97 1032.02 1032.13 1032.32 1032.37 1032.37 1032.47 1032.48 1032.48 1032.40 1032.19 1031.99 1031.93 1031.89 1031.71 1031.33 1030.91 1030.68 1030.01 1029.50 1029.18 1028.64 1028.05 1027.60 1027.31 1027.08 1026.87 1026.77 1027.05 1026.92 1026.42 1025.78 1025.25 1024.49 1023.66 1022.74 1021.73
1031.12 1031.35 1031.52 1031.63 1031.81 1031.99 1032.25 1032.43 1032.63 1032.81 1032.91 1033.01 1033.03 1033.01 1032.89 1032.75 1032.51 1032.36 1032.41 1032.33 1032.26 1031.82 1031.40 1031.10 1030.59 1030.13 1029.65 1029.22 1028.52 1028.03 1027.42 1026.96 1026.76 1026.42 1026.50 1026.43 1026.05 1025.74 1025.08 1024.43 1023.54 1022.61 1021.44
1031.13 1031.39 1031.62 1031.88 1032.08 1032.39 1032.63 1032.89 1033.20 1033.42 1033.57 1033.66 1033.71 1033.67 1033.56 1033.33 1032.97 1033.08 1032.89 1032.69 1032.58 1032.18 1031.71 1031.31 1030.83 1030.42 1029.90 1029.08 1028.47 1028.14 1027.45 1026.35 1025.95 1026.17 1026.08 1025.83 1025.56 1025.12 1024.64 1024.03 1023.24 1022.36 1021.15
Wind_Speed
13 14 15 16 17 17 17 18 17 17 16 17 18 20 22 22 20 16 16 14 16 15 12 15 15 13 9 8 6 6 3 3 4 3 6 8 10 10 10 9 10 10 9
11 13 13 13 15 16 16 17 16 16 17 17 17 22 24 22 22 19 19 17 20 19 16 17 16 11 15 14 11 12 8 7 3 6 7 8 10 10 9 10 9 9 10
12 11 13 14 14 15 15 16 18 18 18 20 21 24 24 23 20 21 19 20 21 21 19 17 15 15 16 11 13 8 7 9 10 8 7 7 7 11 8 8 9 10 11
11 12 12 13 15 15 14 16 17 18 20 22 22 21 23 19 21 20 18 19 20 22 19 15 21 19 17 16 13 13 11 9 10 10 8 5 6 8 7 11 10 10 9
11 13 14 13 14 15 17 17 16 19 17 18 18 19 18 19 15 14 17 19 21 16 19 22 20 28 34 31 14 15 15 10 10 9 10 8 9 8 12 8 8 10 9
12 13 12 13 14 15 15 17 17 19 19 18 19 19 18 13 26 25 19 18 20 21 21 19 19 25 25 29 30 30 25 15 15 11 10 9 13 10 10 9 8 9 7
11 11 12 13 14 14 14 16 18 18 18 20 20 18 19 17 29 31 29 19 19 20 19 16 17 17 18 16 22 22 25 25 17 13 13 12 10 11 10 9 9 8 7
11 11 12 12 13 14 15 15 16 16 17 17 19 19 19 19 29 25 25 18 17 20 21 21 22 23 24 18 15 16 17 17 16 12 13 11 10 11 10 8 9 9 8
11 11 11 11 12 13 14 14 13 13 15 15 15 18 18 20 29 25 19 16 18 20 19 22 20 19 27 24 15 16 16 15 15 18 17 16 14 16 14 8 10 9 9
8 10 11 11 12 12 12 12 12 12 13 12 15 15 22 18 28 29 20 12 15 13 15 17 27 21 26 26 18 16 15 14 14 12 11 13 13 13 16 11 9 9 9
8 8 9 10 11 11 11 10 10 10 11 11 13 13 15 18 20 28 28 14 11 12 12 12 13 24 25 24 21 14 12 8 10 9 9 9 10 11 10 10 9 6 7
7 7 8 9 8 8 9 8 9 9 10 10 11 10 11 13 25 26 26 26 19 12 12 10 12 21 21 24 16 20 18 11 8 9 8 10 10 10 11 11 12 10 7
7 7 8 8 7 7 8 8 7 9 9 9 9 10 9 10 10 18 22 21 20 12 10 13 16 18 18 15 22 21 16 11 10 10 10 9 9 9 11 11 10 12 11
7 6 6 6 7 8 5 7 7 7 8 9 9 9 9 10 10 10 10 10 15 12 9 8 9 11 12 11 11 12 10 10 10 10 9 9 9 9 8 9 10 10 11
6 5 5 5 5 6 7 6 6 8 9 7 7 7 8 9 10 13 13 10 10 10 9 9 10 9 10 10 10 11 10 10 10 9 9 10 10 10 10 10 9 10 9
6 4 4 3 3 4 4 5 12 10 12 12 13 9 7 12 14 14 14 14 13 9 7 8 9 9 9 10 10 10 10 12 10 10 10 10 10 10 11 10 10 9 11
5 5 4 3 3 3 3 3 3 5 9 10 11 12 12 12 13 13 12 10 11 8 7 7 7 7 7 8 8 8 9 9 9 9 9 10 10 10 11 10 10 10 11
6 6 5 4 3 3 3 3 2 3 3 3 4 7 9 10 10 11 12 8 7 7 6 6 7 7 6 6 7 7 7 7 8 9 9 10 10 10 11 11 11 12 13
6 4 4 4 3 3 3 2 2 1 1 2 3 2 4 8 8 8 7 5 6 7 6 6 6 6 6 6 6 6 6 6 6 7 8 9 9 10 10 10 11 14 15
5 6 5 4 3 3 2 1 1 1 1 2 3 4 5 5 6 6 6 5 6 6 7 7 6 6 6 5 5 6 7 7 8 8 8 9 9 9 9 11 11 12 12
4 4 4 3 3 2 2 2 2 2 3 3 4 3 4 4 6 6 7 7 7 8 8 9 8 7 6 6 6 6 6 6 7 7 8 9 9 10 10 10 11 12 12
4 4 3 3 3 3 3 2 3 3 4 4 5 3 3 3 5 6 7 7 7 7 7 8 8 9 8 7 6 6 6 6 7 7 8 8 9 10 11 11 11 12 12
4 4 3 2 2 2 3 3 3 4 4 4 4 4 4 5 5 6 6 7 7 8 8 8 8 8 8 8 7 6 6 7 7 6 7 8 9 10 10 11 12 12 12
4 3 2 2 2 2 3 3 3 3 4 3 3 4 5 6 7 7 7 7 7 8 8 8 9 11 11 10 8 7 7 6 5 5 6 7 8 11 11 11 11 14 13
3 3 2 2 2 2 2 2 2 3 3 4 5 5 6 6 7 7 7 7 7 8 9 9 8 11 12 15 13 15 16 14 10 6 4 6 8 11 10 10 11 12 14
3 2 1 0 1 1 2 2 3 3 4 5 5 5 6 6 6 7 7 7 8 9 10 8 10 14 15 12 13 18 19 17 10 7 4 5 6 8 9 11 14 11 13
Wind_Direction
20 24 17 24 20 20 14 9 3 8 6 20 23 28 30 25 17 11 26 43 54 54 47 71 61 49 41 32 72 91 26 334 200 86 69 42 49 30 15 16 12 21 36
21 29 21 23 22 19 14 11 6 16 19 21 25 40 35 27 25 23 29 37 47 46 44 60 59 57 56 41 32 47 38 15 11 102 41 37 60 12 25 22 14 4 344
31 31 27 26 29 21 16 19 16 21 24 28 28 37 34 31 24 30 31 36 43 44 37 36 45 53 55 47 43 32 48 39 42 59 63 31 43 21 11 5 16 8 338
40 37 34 29 35 30 23 25 20 20 28 26 26 32 35 23 28 28 33 39 41 48 36 36 47 46 51 55 47 32 33 49 52 57 50 32 34 16 16 11 -0 10 323
48 44 42 37 37 37 33 35 32 33 31 37 32 34 39 37 29 32 41 44 49 49 43 36 38 50 51 54 43 32 38 35 51 53 45 35 30 17 14 359 354 328 282
55 53 45 43 42 41 40 40 39 37 42 39 40 41 39 42 41 43 46 49 47 42 45 43 39 39 45 50 52 50 50 38 47 53 47 39 27 16 1 -0 352 346 337
60 55 54 47 43 44 44 43 43 40 38 42 42 41 45 37 37 42 44 49 42 46 44 42 46 41 35 49 53 50 51 51 47 52 55 41 31 13 357 -0 355 341 318
59 57 54 53 51 47 46 47 48 43 42 42 41 36 40 37 36 43 49 55 53 45 43 40 41 33 29 30 43 48 45 43 35 43 50 39 30 19 8 351 346 328 318
58 57 55 55 56 53 50 45 48 54 52 50 47 46 44 44 42 41 45 46 52 49 45 41 42 41 34 31 38 38 41 34 30 31 42 35 29 25 18 9 10 359 352
65 67 61 59 58 52 52 48 49 49 54 54 50 45 46 44 43 43 42 45 49 47 46 42 39 44 42 36 38 31 31 13 7 12 20 23 20 16 18 18 7 5 354
87 79 79 75 64 57 53 52 52 48 51 46 49 44 39 45 40 45 45 44 44 47 43 37 37 39 44 43 43 39 31 8 12 13 13 12 10 9 8 3 1 354 347
102 90 83 76 72 67 63 62 53 52 54 55 51 51 46 39 40 41 46 48 44 49 41 40 37 42 44 45 44 37 33 26 22 20 16 12 4 358 349 346 343 333 330
108 97 86 79 72 74 63 56 51 48 45 45 46 46 46 47 47 50 49 49 50 48 46 41 41 38 39 36 34 31 27 24 20 21 12 3 353 343 332 342 339 334 328
111 99 91 83 76 65 68 60 50 43 43 40 37 40 38 37 37 31 37 38 38 44 37 43 30 39 45 38 31 30 28 23 18 13 359 349 343 348 346 348 338 339 328
119 108 95 83 79 80 62 54 57 53 48 46 45 35 32 35 37 41 28 32 29 26 17 28 26 24 24 24 25 23 21 15 15 7 1 354 351 346 343 342 340 333 330
133 122 102 93 79 78 84 81 56 57 54 55 44 49 41 41 34 40 41 33 42 25 32 26 24 21 20 15 12 7 9 9 7 1 359 354 347 340 340 336 336 335 327
140 137 125 114 108 106 89 78 83 62 50 44 45 38 40 35 34 31 30 29 29 25 29 25 22 18 11 11 6 1 357 3 348 354 350 351 344 337 332 333 333 331 327
127 123 126 117 118 117 110 110 85 66 46 34 20 24 23 21 18 17 15 1 10 19 15 8 7 2 357 356 356 353 349 345 350 350 348 349 345 335 333 332 330 329 327
140 142 138 134 141 140 143 130 106 125 36 1 347 6 7 347 349 5 7 3 348 342 343 339 338 337 336 334 344 344 344 345 344 340 344 341 342 335 328 324 320 322 316
152 151 158 155 155 160 172 171 179 261 295 322 326 348 335 327 348 346 348 337 327 320 317 312 312 310 316 313 320 332 336 344 345 340 341 340 340 332 324 323 322 320 318
151 157 171 177 184 182 197 233 256 275 300 307 311 327 326 317 328 331 335 339 336 334 330 320 309 299 294 294 302 323 327 329 334 331 330 334 335 327 325 317 316 314 314
162 159 176 197 198 216 235 266 276 288 297 301 315 326 346 306 330 334 336 339 338 334 338 331 317 308 300 292 294 296 304 310 319 325 326 326 327 323 322 318 315 316 313
158 168 181 201 243 244 243 265 284 288 297 306 320 326 339 345 343 342 340 339 335 334 335 333 332 334 331 317 298 283 287 297 310 314 310 316 320 320 318 313 316 314 316
150 148 174 195 214 242 268 296 313 330 340 351 355 349 345 338 335 335 337 338 334 334 336 340 333 341 341 338 328 315 297 284 282 276 282 295 308 318 318 311 310 313 309
163 167 182 208 262 306 316 350 26 30 17 5 351 345 341 336 330 338 335 335 338 333 334 330 334 336 341 333 337 339 326 308 278 259 256 279 300 310 310 308 309 310 310
180 187 182 264 357 56 55 44 32 12 2 353 346 341 335 332 333 334 334 333 333 325 328 328 325 328 328 320 332 328 329 311 277 226 248 281 300 310 319 315 310 312 313